Ulyanovsk East Airport
UWLW : now visible

Airfield :











YOU CAN JOIN US ON...

 
LOGIN :

Register | Disclaimer

   EN    FR    IT 

 









Legend :    VFR   Marginal VFR   IFR   Intensive IFR   Very Intensive IFR
Visi :
Ceiling :
>= 8 km
>= 3000ft
5 to 8 km
1000 to 3000 ft
1500m to 5 km
500 to 1000 ft
800 to 1500m
200 to 500 ft
< 800m
< 200 ft
Symbols :   Thunderstorms  Fog  Heavy snow  Heavy precipitations  Wind > 20 kt






- Airport Elevation : 252 ft
- IATA code : ULY


UWLW - Ulyanovsk East

CURRENT METAR :
  • 091800Z 11003MPS 8000 NSC 26/17 Q1010 R20/CLRD60 NOSIG RMK QFE752

EXPIRED METARs :
  • 091700Z 11003MPS 8000 NSC 28/17 Q1011 R20/CLRD60 NOSIG RMK QFE752
  • 091600Z 13003MPS 8000 NSC 30/16 Q1011 R20/CLRD60 NOSIG RMK QFE752

TAF TAF UWLW
Valid from the 09 at 18:00 until the 10 at 18:00 UTC


091650Z 0918/1018 13003G09MPS 8000 SCT033 TX27/1009Z TN21/1001Z
BECMG 1003/1006 33003G08MPS BKN030CB
TEMPO 1006/1018 29006G13MPS -TSRA BKN020CB
UWWW FIR / Europe



MET'MAP, your aeronautical weather chart ! - Copyright ORBIFLY December 2007 - Disclaimer

ORBIFLY MET'MAP TEAM :

Programming & Development : Alexandra Zaïnal
Concept & original design : Baudouin d'Aumeries
Assistance for programming : Marc-Olivier Méhu
Technical & hardware support : Manuel Goepfert

Contact : metmap@orbifly.com




SOURCES & CREDITS :

   NOAA       Earth
Advisory